Погода на Лемносе

Греция     39°55′16″N   25°11′55″E
темп.,
°C
ветер,
м/с
пор.,
м/с
влажн.,
%
обл.,
%
осадки,
мм/ч
давл.,
гПа
погр.,
м
11 апреля, вс
вс1100:00+10всв2243100 0.0 1025312
03:00+10всв33480 0.0 1025599
06:00+9всв22590 0.0 1025532
09:00+11св44570 0.0 1025684
12:00+11св55570 0.0 1026723
15:00+11св55520 0.0 1026630
18:00+11св44510 0.0 1025416
21:00+11св45550 0.0 1026344
12 апреля, пн
пн1200:00+11всв34540 0.0 1026387
03:00+11св44570 0.0 1025374
06:00+10св34620 0.0 1024341
09:00+11ссв33620 0.0 1025408
12:00+12св43640 0.0 1025533
15:00+12ссв32632 0.0 1023428
18:00+13ссв21615 0.0 1022273
21:00+12св22630 0.0 102299
13 апреля, вт
вт1300:00+12св33574 0.0 1021194
03:00+12св33675 0.0 1021194
06:00+12св33705 0.0 1020198
09:00+13всв336657 0.0 1020280
12:00+15ююв125610 0.0 1019446
15:00+16юз2359100 0.0 1018420
18:00+16ююз235999 0.0 1016360
21:00+14ю347490 0.0 1016135
14 апреля, ср
ср1400:00+14ю4780100 0.0 1015211
03:00+14ю71183100 0.0 1013429
06:00+14ююз8128523 0.3 1012454
09:00+15ю912802 0.4 1012674
12:00+16ююз12147513 0.1 1011770
15:00+17ююз89660 0.7 1010573
18:00+16юз586144 0.1 1010416
21:00+14юз45700 0.1 101170
15 апреля, чт
чт1500:00+14зюз45764 0.2 101282
03:00+13св44812 0.2 1013148
06:00+11всв448597 0.0 1014261
09:00+12всв65753 0.0 1016425
12:00+14с23680 0.0 1016499
15:00+14сз23665 0.0 1016583
18:00+15з345845 0.0 1015465
21:00+13юз2362100 0.0 101676